Total_Precipitation_Accumulation
0.44 0.59 0.69 0.68 0.68 0.70 0.73 0.69 0.59 0.46 0.39 0.36 0.36 0.37 0.39 0.37 0.34 0.36 0.34 0.33 0.34 0.31 0.28 0.30 0.29 0.30 0.38 0.41 0.44 0.43 0.39 0.44 0.45 0.13 0.04 0.06 0.14 0.23 0.23 0.17 0.16 0.15 0.13
0.38 0.48 0.59 0.65 0.67 0.70 0.67 0.69 0.69 0.58 0.43 0.33 0.31 0.33 0.38 0.39 0.36 0.38 0.37 0.34 0.36 0.35 0.33 0.34 0.36 0.37 0.42 0.47 0.54 0.55 0.48 0.43 0.49 0.33 0.12 0.10 0.17 0.27 0.30 0.24 0.20 0.17 0.12
0.36 0.43 0.52 0.61 0.64 0.64 0.59 0.57 0.67 0.71 0.62 0.46 0.34 0.33 0.39 0.44 0.40 0.37 0.41 0.42 0.39 0.37 0.37 0.42 0.45 0.47 0.46 0.48 0.59 0.65 0.60 0.53 0.54 0.51 0.28 0.15 0.17 0.27 0.37 0.34 0.28 0.25 0.19
0.35 0.40 0.45 0.53 0.57 0.56 0.55 0.50 0.53 0.60 0.64 0.57 0.44 0.37 0.42 0.52 0.51 0.51 0.54 0.50 0.44 0.37 0.33 0.36 0.46 0.59 0.64 0.69 0.71 0.70 0.73 0.74 0.69 0.64 0.46 0.29 0.25 0.30 0.45 0.50 0.42 0.35 0.30
0.35 0.38 0.36 0.43 0.52 0.53 0.51 0.49 0.49 0.51 0.51 0.52 0.50 0.42 0.44 0.64 0.84 0.98 0.89 0.63 0.47 0.38 0.30 0.30 0.40 0.63 0.82 1.02 1.08 0.97 0.97 1.04 0.97 0.90 0.76 0.58 0.44 0.44 0.53 0.56 0.61 0.51 0.45
0.33 0.36 0.36 0.40 0.48 0.52 0.49 0.48 0.48 0.49 0.48 0.44 0.44 0.43 0.42 0.63 0.96 1.16 0.85 0.51 0.40 0.36 0.34 0.30 0.37 0.59 0.75 0.87 1.00 1.01 1.06 1.21 1.27 1.20 1.05 0.85 0.61 0.50 0.53 0.65 0.78 0.83 0.70
0.32 0.34 0.38 0.39 0.42 0.49 0.50 0.49 0.48 0.48 0.47 0.43 0.40 0.39 0.36 0.47 0.81 1.03 0.78 0.46 0.36 0.34 0.33 0.31 0.34 0.46 0.59 0.65 0.70 0.73 0.78 0.94 1.17 1.29 1.24 0.93 0.74 0.61 0.71 0.83 0.84 0.93 0.83
0.33 0.32 0.36 0.37 0.37 0.45 0.49 0.48 0.48 0.47 0.43 0.40 0.39 0.37 0.34 0.38 0.69 0.96 0.76 0.47 0.38 0.35 0.36 0.33 0.28 0.33 0.46 0.63 0.70 0.65 0.60 0.69 0.95 1.17 1.34 1.15 0.95 0.92 1.08 1.24 1.25 1.20 1.03
0.30 0.29 0.32 0.34 0.34 0.39 0.44 0.46 0.45 0.47 0.43 0.37 0.35 0.37 0.34 0.32 0.57 0.95 0.82 0.48 0.38 0.35 0.36 0.34 0.27 0.26 0.43 0.61 0.61 0.56 0.49 0.55 0.68 0.90 1.05 1.07 1.06 1.17 1.39 1.70 1.78 1.68 1.41
0.26 0.24 0.29 0.30 0.29 0.33 0.36 0.41 0.43 0.43 0.43 0.40 0.35 0.35 0.35 0.30 0.43 0.85 0.93 0.53 0.41 0.35 0.34 0.33 0.35 0.37 0.47 0.54 0.51 0.53 0.60 0.55 0.51 0.54 0.57 0.60 0.66 0.77 1.10 1.52 1.76 1.79 1.56
0.23 0.22 0.26 0.27 0.26 0.29 0.33 0.34 0.39 0.42 0.40 0.41 0.38 0.35 0.35 0.34 0.39 0.63 0.92 0.68 0.51 0.40 0.38 0.36 0.31 0.41 0.46 0.47 0.50 0.52 0.67 0.62 0.53 0.57 0.56 0.51 0.49 0.57 0.75 1.06 1.46 1.76 1.77
0.21 0.22 0.24 0.25 0.26 0.29 0.31 0.29 0.32 0.40 0.41 0.41 0.41 0.40 0.38 0.36 0.41 0.57 0.73 0.70 0.60 0.44 0.40 0.34 0.30 0.39 0.43 0.47 0.48 0.52 0.58 0.58 0.53 0.51 0.46 0.44 0.46 0.53 0.65 0.82 1.07 1.36 1.54
0.20 0.20 0.22 0.24 0.27 0.30 0.30 0.28 0.31 0.37 0.40 0.40 0.42 0.40 0.37 0.35 0.43 0.61 0.59 0.56 0.57 0.50 0.51 0.51 0.44 0.47 0.47 0.40 0.39 0.44 0.45 0.42 0.48 0.50 0.45 0.39 0.43 0.53 0.59 0.66 0.75 0.97 1.17
0.19 0.17 0.19 0.24 0.30 0.35 0.32 0.28 0.28 0.34 0.42 0.42 0.42 0.39 0.37 0.37 0.49 0.62 0.51 0.44 0.50 0.56 0.58 0.56 0.54 0.50 0.42 0.34 0.31 0.30 0.28 0.32 0.43 0.48 0.44 0.38 0.36 0.41 0.51 0.63 0.73 0.84 1.05
0.18 0.16 0.19 0.23 0.32 0.38 0.35 0.30 0.28 0.28 0.42 0.49 0.44 0.41 0.44 0.51 0.60 0.66 0.56 0.49 0.51 0.58 0.63 0.62 0.53 0.45 0.41 0.34 0.27 0.23 0.22 0.26 0.32 0.35 0.39 0.41 0.40 0.41 0.44 0.53 0.73 0.85 1.01
0.19 0.18 0.21 0.24 0.30 0.36 0.36 0.36 0.41 0.37 0.40 0.40 0.39 0.41 0.40 0.51 0.54 0.52 0.53 0.53 0.56 0.61 0.66 0.64 0.47 0.36 0.34 0.30 0.27 0.24 0.20 0.21 0.23 0.29 0.36 0.39 0.43 0.46 0.47 0.49 0.64 0.83 0.96
0.21 0.22 0.24 0.26 0.29 0.34 0.35 0.36 0.41 0.46 0.46 0.41 0.37 0.38 0.42 0.46 0.45 0.44 0.47 0.50 0.53 0.55 0.54 0.45 0.36 0.30 0.28 0.26 0.24 0.24 0.21 0.18 0.21 0.27 0.31 0.33 0.37 0.43 0.48 0.50 0.56 0.70 0.82
0.22 0.25 0.28 0.27 0.30 0.35 0.35 0.35 0.38 0.40 0.40 0.39 0.40 0.40 0.40 0.43 0.44 0.43 0.46 0.52 0.53 0.45 0.36 0.34 0.32 0.29 0.28 0.29 0.27 0.26 0.24 0.22 0.23 0.24 0.25 0.27 0.32 0.40 0.44 0.46 0.51 0.65 0.75
0.25 0.26 0.30 0.29 0.31 0.34 0.35 0.36 0.38 0.38 0.36 0.34 0.37 0.43 0.46 0.47 0.49 0.47 0.46 0.44 0.40 0.34 0.30 0.30 0.29 0.31 0.31 0.30 0.28 0.26 0.26 0.23 0.20 0.21 0.21 0.22 0.25 0.33 0.38 0.38 0.45 0.53 0.64
0.29 0.34 0.36 0.32 0.33 0.36 0.38 0.39 0.40 0.40 0.39 0.36 0.36 0.39 0.51 0.57 0.56 0.53 0.45 0.39 0.37 0.32 0.28 0.30 0.28 0.30 0.32 0.31 0.29 0.27 0.26 0.22 0.19 0.20 0.19 0.19 0.20 0.27 0.32 0.34 0.40 0.48 0.54
0.33 0.35 0.40 0.36 0.35 0.40 0.43 0.44 0.44 0.45 0.44 0.39 0.33 0.36 0.54 0.60 0.51 0.42 0.39 0.37 0.35 0.33 0.32 0.33 0.31 0.30 0.31 0.31 0.30 0.27 0.25 0.22 0.19 0.19 0.19 0.19 0.20 0.23 0.24 0.30 0.36 0.42 0.49
0.35 0.37 0.39 0.40 0.40 0.42 0.46 0.47 0.48 0.48 0.46 0.43 0.37 0.38 0.46 0.44 0.41 0.40 0.38 0.35 0.33 0.33 0.34 0.37 0.36 0.33 0.34 0.36 0.35 0.32 0.27 0.21 0.19 0.20 0.21 0.20 0.20 0.20 0.21 0.25 0.29 0.36 0.43
0.39 0.43 0.45 0.47 0.43 0.47 0.50 0.49 0.49 0.50 0.48 0.44 0.41 0.40 0.42 0.41 0.40 0.40 0.40 0.36 0.34 0.34 0.34 0.36 0.36 0.33 0.31 0.33 0.32 0.34 0.31 0.23 0.20 0.22 0.26 0.23 0.19 0.18 0.19 0.22 0.25 0.31 0.39
0.48 0.49 0.50 0.53 0.50 0.49 0.50 0.53 0.52 0.50 0.49 0.47 0.46 0.43 0.41 0.41 0.40 0.39 0.38 0.37 0.36 0.35 0.36 0.37 0.35 0.33 0.32 0.32 0.29 0.26 0.25 0.24 0.27 0.30 0.29 0.28 0.24 0.20 0.20 0.23 0.23 0.27 0.34
0.55 0.54 0.54 0.57 0.56 0.54 0.53 0.54 0.53 0.52 0.50 0.48 0.47 0.46 0.42 0.41 0.40 0.38 0.37 0.37 0.37 0.36 0.34 0.35 0.36 0.35 0.33 0.31 0.28 0.25 0.24 0.28 0.36 0.45 0.46 0.41 0.30 0.22 0.22 0.24 0.23 0.25 0.30
0.56 0.55 0.56 0.56 0.56 0.55 0.55 0.57 0.55 0.54 0.54 0.49 0.47 0.47 0.45 0.43 0.41 0.39 0.37 0.38 0.40 0.37 0.34 0.33 0.34 0.35 0.34 0.33 0.29 0.28 0.30 0.33 0.37 0.40 0.49 0.52 0.39 0.26 0.23 0.26 0.23 0.25 0.30